User: anonymous   Login
Location: Theydon Bois
(51.6750°N, 0.1050°E)
Time: 18:45:18
(UTC+01:00)
Language:

Cosmos 1833 Rocket - Orbit

View from above orbital plane
View from above orbital plane
View from above satellite
View from above satellite

Ground track
Ground track

The orbit data is extracted from the following two-line orbital elements,

1 17590U 87027B   17293.94998107 -.00000198 +00000-0 -74934-4 0  9996
2 17590 071.0028 245.1466 0002909 128.8071 231.3312 14.16749793581704
Epoch (UTC): 20 October 2017 22:47:58
Eccentricity: 0.0002909
inclination: 71.0028°
perigee height: 834 km
apogee height: 838 km
right ascension of ascending node: 245.1466°
argument of perigee: 128.8071°
revolutions per day: 14.16749793
mean anomaly at epoch: 231.3312°
orbit number at epoch: 58170

The dashed part of the orbit path shows where the satellite is in the earth's shadow,  

DLR